Retour au catalogue

STARLINK-36486

ActifCommunicationsVLEO
NORAD 67335·PAYLOAD·🇺🇸 United States

Lancé Jan 9, 2026 depuis Cape Canaveral Space Force Station

Loading…

Prochains Passages (prochaines 24 heures)

TLE

FraisSource: CelesTrak SupGP

Époque: Sep 15, 2026, 03:07 UTC

1 67335C 26003B   26258.13034722 -.00036858  00000+0 -13352-2 0  2585
2 67335  42.9991 236.9692 0001364 268.5798 290.3405 15.27591283    13

Suivez STARLINK-36486 en temps réel avec AllMySat

Download on the App Store